• In Germany
  • List of Countries
  • For 7 days
  • Water Temperature
  • Satellite Maps
  • Weather Map
  • Weather Widgets
  • user-avatar
    Login

    Hourly Weather Salzburg

    Today, 17 July, Tuesday

    Time Temperature Precipitation Wind Pressure Humidity
    00:00 +8°C° 0.1 mm 1 mps 625 mmHg 93%
    01:00 +7°C° 0 mm 2 mps 624 mmHg 94%
    02:00 +7°C° 0.1 mm 2 mps 624 mmHg 95%
    03:00 +6°C° 0.1 mm 2 mps 624 mmHg 95%
    04:00 +6°C° 0.1 mm 2 mps 624 mmHg 95%
    05:00 +7°C° 0.1 mm 2 mps 625 mmHg 93%
    06:00 +9°C° 0.1 mm 2 mps 626 mmHg 90%
    07:00 +10°C° 0.1 mm 2 mps 626 mmHg 87%
    08:00 +12°C° 0.4 mm 2 mps 627 mmHg 81%
    09:00 +14°C° 0.4 mm 2 mps 627 mmHg 75%
    10:00 +15°C° 0.4 mm 2 mps 628 mmHg 69%
    11:00 +16°C° 0.3 mm 3 mps 628 mmHg 64%
    12:00 +17°C° 0.3 mm 3 mps 628 mmHg 60%
    13:00 +18°C° 0.3 mm 3 mps 628 mmHg 55%
    14:00 +17°C° 0.1 mm 3 mps 628 mmHg 56%
    15:00 +17°C° 0.1 mm 3 mps 628 mmHg 56%
    16:00 +17°C° 0.1 mm 3 mps 628 mmHg 57%
    17:00 +16°C° 0.2 mm 3 mps 628 mmHg 64%
    18:00 +15°C° 0.2 mm 2 mps 628 mmHg 72%
    19:00 +13°C° 0.2 mm 2 mps 627 mmHg 80%
    20:00 +12°C° 0 mm 2 mps 627 mmHg 84%
    21:00 +9°C° 0 mm 2 mps 627 mmHg 88%
    22:00 +8°C° 0 mm 2 mps 627 mmHg 92%
    23:00 +8°C° 0 mm 2 mps 627 mmHg 90%

    Tomorrow, 18 July, Wednesday

    Time Temperature Precipitation Wind Pressure Humidity
    00:00 +7°C° 0 mm 2 mps 627 mmHg 88%
    01:00 +7°C° 0 mm 2 mps 627 mmHg 85%
    02:00 +7°C° 0 mm 2 mps 627 mmHg 85%
    03:00 +7°C° 0 mm 2 mps 627 mmHg 85%
    04:00 +7°C° 0 mm 2 mps 627 mmHg 84%
    05:00 +9°C° 0.1 mm 2 mps 627 mmHg 83%
    06:00 +10°C° 0.1 mm 2 mps 628 mmHg 81%
    07:00 +12°C° 0.1 mm 2 mps 628 mmHg 79%
    08:00 +14°C° 0.2 mm 2 mps 629 mmHg 74%
    09:00 +15°C° 0.2 mm 2 mps 629 mmHg 69%
    10:00 +17°C° 0.2 mm 2 mps 630 mmHg 64%
    11:00 +18°C° 0.2 mm 2 mps 630 mmHg 60%
    12:00 +18°C° 0.2 mm 2 mps 630 mmHg 57%
    13:00 +19°C° 0.2 mm 2 mps 630 mmHg 53%
    14:00 +19°C° 0.2 mm 2 mps 630 mmHg 56%
    15:00 +19°C° 0.2 mm 2 mps 629 mmHg 59%
    16:00 +18°C° 0.2 mm 2 mps 629 mmHg 62%
    17:00 +17°C° 0.1 mm 2 mps 629 mmHg 69%
    18:00 +16°C° 0.1 mm 2 mps 629 mmHg 77%
    19:00 +14°C° 0.1 mm 1 mps 628 mmHg 85%
    20:00 +13°C° 0 mm 1 mps 628 mmHg 88%
    21:00 +11°C° 0 mm 1 mps 628 mmHg 92%
    22:00 +9°C° 0 mm 2 mps 628 mmHg 96%
    23:00 +8°C° 0 mm 2 mps 628 mmHg 96%

    Day after tomorrow, 19 July, Thursday

    Time Temperature Precipitation Wind Pressure Humidity
    00:00 +8°C° 0 mm 2 mps 628 mmHg 95%
    01:00 +7°C° 0 mm 2 mps 627 mmHg 95%
    02:00 +7°C° 0 mm 2 mps 627 mmHg 95%
    03:00 +7°C° 0 mm 2 mps 627 mmHg 94%
    04:00 +7°C° 0 mm 2 mps 627 mmHg 94%
    05:00 +9°C° 0 mm 1 mps 628 mmHg 90%
    06:00 +11°C° 0 mm 1 mps 628 mmHg 86%
    07:00 +12°C° 0 mm 1 mps 629 mmHg 83%
    08:00 +14°C° 0.1 mm 1 mps 629 mmHg 75%
    09:00 +15°C° 0.1 mm 2 mps 630 mmHg 68%
    10:00 +17°C° 0.1 mm 2 mps 630 mmHg 60%
    11:00 +18°C° 0 mm 2 mps 630 mmHg 56%
    12:00 +19°C° 0 mm 2 mps 631 mmHg 52%
    13:00 +20°C° 0 mm 2 mps 631 mmHg 48%
    14:00 +20°C° 0 mm 2 mps 631 mmHg 50%
    15:00 +19°C° 0 mm 2 mps 630 mmHg 51%
    16:00 +19°C° 0 mm 2 mps 630 mmHg 53%
    17:00 +18°C° 0.1 mm 2 mps 630 mmHg 62%
    18:00 +16°C° 0.1 mm 1 mps 629 mmHg 71%
    19:00 +15°C° 0.1 mm 1 mps 629 mmHg 81%
    20:00 +13°C° 0 mm 1 mps 629 mmHg 85%
    21:00 +12°C° 0 mm 1 mps 629 mmHg 89%
    22:00 +10°C° 0 mm 1 mps 628 mmHg 93%
    23:00 +10°C° 0 mm 1 mps 628 mmHg 94%

    20 July, Friday

    Time Temperature Precipitation Wind Pressure Humidity
    00:00 +9°C° 0 mm 1 mps 628 mmHg 95%
    01:00 +9°C° 0 mm 1 mps 628 mmHg 95%
    02:00 +9°C° 0 mm 1 mps 628 mmHg 95%
    03:00 +8°C° 0 mm 1 mps 627 mmHg 95%
    04:00 +8°C° 0 mm 1 mps 627 mmHg 95%
    05:00 +10°C° 0 mm 1 mps 628 mmHg 89%
    06:00 +11°C° 0 mm 1 mps 628 mmHg 83%
    07:00 +12°C° 0 mm 0 mps 629 mmHg 77%
    08:00 +15°C° 0 mm 1 mps 629 mmHg 67%
    09:00 +19°C° 0 mm 1 mps 630 mmHg 57%
    10:00 +21°C° 0 mm 1 mps 631 mmHg 47%
    11:00 +21°C° 0 mm 1 mps 631 mmHg 45%
    12:00 +22°C° 0 mm 1 mps 631 mmHg 43%
    13:00 +23°C° 0 mm 2 mps 631 mmHg 41%
    14:00 +21°C° 0.2 mm 2 mps 630 mmHg 45%
    15:00 +21°C° 0.2 mm 2 mps 630 mmHg 48%
    16:00 +21°C° 0.2 mm 2 mps 630 mmHg 51%
    17:00 +20°C° 0.3 mm 1 mps 629 mmHg 61%
    18:00 +18°C° 0.3 mm 1 mps 629 mmHg 71%
    19:00 +16°C° 0.3 mm 1 mps 628 mmHg 81%
    20:00 +15°C° 0.3 mm 1 mps 628 mmHg 84%
    21:00 +13°C° 0.3 mm 1 mps 627 mmHg 86%
    22:00 +12°C° 0.3 mm 1 mps 627 mmHg 89%
    23:00 +12°C° 0.2 mm 1 mps 627 mmHg 89%

    21 July, Saturday

    Time Temperature Precipitation Wind Pressure Humidity
    00:00 +12°C° 0.2 mm 1 mps 627 mmHg 89%
    01:00 +12°C° 0.2 mm 1 mps 626 mmHg 89%
    02:00 +11°C° 0.5 mm 1 mps 626 mmHg 90%
    03:00 +11°C° 0.5 mm 1 mps 626 mmHg 90%
    04:00 +11°C° 0.5 mm 1 mps 625 mmHg 91%
    05:00 +12°C° 0.7 mm 1 mps 626 mmHg 89%
    06:00 +12°C° 0.7 mm 0 mps 626 mmHg 87%
    07:00 +13°C° 0.7 mm 0 mps 627 mmHg 85%
    08:00 +13°C° 1.2 mm 0 mps 627 mmHg 85%
    09:00 +15°C° 1.2 mm 1 mps 627 mmHg 85%
    10:00 +15°C° 1.2 mm 1 mps 627 mmHg 85%
    11:00 +15°C° 1.4 mm 1 mps 627 mmHg 86%
    12:00 +15°C° 1.4 mm 1 mps 627 mmHg 87%
    13:00 +15°C° 1.4 mm 1 mps 627 mmHg 89%
    14:00 +14°C° 1.1 mm 1 mps 627 mmHg 89%
    15:00 +14°C° 1.1 mm 1 mps 627 mmHg 89%
    16:00 +14°C° 1.1 mm 1 mps 627 mmHg 89%
    17:00 +14°C° 0.4 mm 1 mps 627 mmHg 91%
    18:00 +13°C° 0.4 mm 1 mps 627 mmHg 92%
    19:00 +13°C° 0.4 mm 1 mps 627 mmHg 93%
    20:00 +12°C° 0.2 mm 1 mps 627 mmHg 94%
    21:00 +11°C° 0.2 mm 1 mps 627 mmHg 94%
    22:00 +10°C° 0.2 mm 1 mps 626 mmHg 95%
    23:00 +10°C° 0 mm 1 mps 626 mmHg 95%

    22 July, Sunday

    Time Temperature Precipitation Wind Pressure Humidity
    00:00 +9°C° 0 mm 2 mps 626 mmHg 95%
    01:00 +8°C° 0 mm 2 mps 626 mmHg 96%
    02:00 +8°C° 0.1 mm 2 mps 626 mmHg 96%
    03:00 +8°C° 0.1 mm 2 mps 626 mmHg 96%
    04:00 +8°C° 0.1 mm 2 mps 626 mmHg 96%
    05:00 +10°C° 0.3 mm 1 mps 626 mmHg 95%
    06:00 +10°C° 0.3 mm 1 mps 627 mmHg 94%
    07:00 +11°C° 0.3 mm 1 mps 627 mmHg 94%
    08:00 +11°C° 0.8 mm 1 mps 627 mmHg 94%
    09:00 +11°C° 0.8 mm 1 mps 627 mmHg 94%
    10:00 +12°C° 0.8 mm 1 mps 627 mmHg 94%
    11:00 +13°C° 0.6 mm 2 mps 628 mmHg 91%
    12:00 +14°C° 0.6 mm 2 mps 628 mmHg 87%
    13:00 +15°C° 0.6 mm 2 mps 628 mmHg 83%
    14:00 +15°C° 0.5 mm 2 mps 628 mmHg 82%
    15:00 +16°C° 0.5 mm 2 mps 628 mmHg 80%
    16:00 +16°C° 0.5 mm 2 mps 629 mmHg 79%
    17:00 +15°C° 0.5 mm 2 mps 628 mmHg 83%
    18:00 +14°C° 0.5 mm 2 mps 628 mmHg 88%
    19:00 +13°C° 0.5 mm 1 mps 628 mmHg 92%
    20:00 +12°C° 0 mm 2 mps 628 mmHg 94%
    21:00 +9°C° 0 mm 2 mps 628 mmHg 95%
    22:00 +8°C° 0 mm 2 mps 628 mmHg 96%
    23:00 +8°C° 0 mm 2 mps 628 mmHg 96%
    Show more